Preview of NWS' New Version of Forecast
This preview is not operational and should not be used for support decisions.

Regional Weather Roundup (RWR)

Issued by National Weather Service (NWS)

                            
000
ASUS46 KPQR 242010
RWROR 

OREGON REGIONAL WEATHER ROUNDUP
NATIONAL WEATHER SERVICE PORTLAND OR
100 PM PDT MON JUN 24 2019

NOTE: "FAIR" INDICATES FEW OR NO CLOUDS BELOW 12,000 FEET WITH
NO SIGNIFICANT WEATHER AND/OR OBSTRUCTIONS TO VISIBILITY.

ORZ001>013-242100-
NORTHWEST OREGON

  
CITY           SKY/WX    TMP DP  RH WIND       PRES   REMARKS
ASTORIA        CLOUDY    61  48  62 N9        30.06F                  
TILLAMOOK      SUNNY     66  48  52 NW12      30.06F                  
PORTLAND       MOSUNNY   66  43  43 NW8       30.05F                  
VANCOUVER WA   MOSUNNY   65  43  44 NW7       30.05F                  
SCAPPOOSE      CLOUDY    64  46  52 CALM      30.05F                  
HILLSBORO      PTSUNNY   64  44  48 CALM      30.05F                  
AURORA         SUNNY     66  44  45 NW8       30.05F                  
MCMINNVILLE    MOSUNNY   69  46  43 N8        30.04F                  
SALEM          SUNNY     69  44  40 NE9       30.02F                  
CORVALLIS      SUNNY     68  47  46 VRB5      30.03F                  
EUGENE         MOSUNNY   70  47  43 VRB3      30.02F                  
$$

ORZ021-028-242100-
SOUTHWEST OREGON

  
CITY           SKY/WX    TMP DP  RH WIND       PRES   REMARKS
NORTH BEND     SUNNY     65  50  58 N15       30.05F                  
BROOKINGS      MOSUNNY   63  50  62 SE6       30.01F                  
ROSEBURG       SUNNY     72  50  45 VRB3      29.99F                  
SEXTON SUMMIT  SUNNY     65  44  46 VRB3      30.05S                  
GRANTS PASS    FAIR      77  41  27 CALM      29.99F                  
MEDFORD        MOSUNNY   78  43  28 NW6       29.95F                  
$$

ORZ014>016-041-242100-
COLUMBIA GORGE

  
CITY           SKY/WX    TMP DP  RH WIND       PRES   REMARKS
TROUTDALE      SUNNY     66  44  45 VRB3      30.05F                  
HOOD RIVER     SUNNY     68  41  37 NW14G30   29.97F                  
THE DALLES     SUNNY     72  42  34 NW18      29.94F                  
$$

ORZ029>031-041-044-049-050-061>064-502-503-505>511-242100-
EASTERN OREGON

  
CITY           SKY/WX    TMP DP  RH WIND       PRES   REMARKS
MADRAS         SUNNY     70  34  26 E5        29.99F                  
REDMOND        MOSUNNY   70  38  31 CALM      29.97F                  
BEND           MOSUNNY   68  37  32 CALM      29.97F                  
PRINEVILLE     SUNNY     66  36  32 VRB5G14   29.97F                  
KLAMATH FALLS  SUNNY     71  37  28 W13G23    29.99F                  
LAKEVIEW       HAZE      72  39  30 SE8       29.99F VSB 1/4          
HERMISTON      SUNNY     75  40  28 W8G17     29.93F                  
PENDLETON      SUNNY     72  38  29 NW10G17   29.94F                  
JOHN DAY       SUNNY     68  36  30 N7        29.98F                  
MEACHAM        SUNNY     62  35  36 CALM      29.99F                  
LA GRANDE      SUNNY     69  38  32 E9        29.96F                  
BAKER CITY     SUNNY     71  37  28 VRB3      29.96F                  
BURNS          PTSUNNY   71  37  28 W9        30.00F                  
ROME             N/A     77  30  17 W9G24     29.95F                  
ONTARIO        SUNNY     77  38  24 VRB6      29.92F                  
$$